一网星座-0567星 (ONEWEB-0567)

导读

ONEWEB-0567是英国卫星互联网运营商OneWeb的低轨通信卫星,于2023年1月10日发射入轨,属于OneWeb全球宽带走低轨星座组网卫星。该卫星单星重约147.5公斤,配备Ku/Ka波段天线,支持7.5Gbps通信容量,为全球提供高速宽带互联网服务,可满足偏远地区、航空、海上等场景网络接入需求,助力OneWeb完成648颗卫星的全球组网布局,目前已在轨稳定运行超三年。

基本信息
目录编号:
55147
目录名称:
ONEWEB-0567
国际标识:
2023-004H
轨道中心:
EARTH
卫星名称:
一网星座-0567星
卫星全名:
一网星座-0567星 (ONEWEB-0567)
卫星状态:
在轨 (已飞行1295 天)
发射日期:
2023-01-10 UTC
国别 :
英国 (GB)
星等 :
--
轨道信息
数据来源 国际轨道数据
星历时间: 2026-07-27T05:30:30+0800
1天前
查看轨道信息
半长轴: 7567.884km
偏心率: 0.0002196
轨道倾角: 87.920°
近地点辐角 94.976°
升交点赤经 327.574°
平近点角 265.162°
近地点: 1188.085km
远地点: 1191.409km
周期: 109.200分钟
每日圈数: 13.18685
详细信息
平衡模式:
三轴稳定
覆盖范围:
全球
运营商:
一网卫星公司
运营商所在国:
英国
制造商(研发单位):
一网卫星公司
制造商所在国:
英国
使用方式:
暂无
卫星简介
OneWeb卫星网络由648颗重约125公斤的微型卫星组成,运行在1200公里的轨道上。 每颗卫星都能够提供至少每秒8千兆位的吞吐量,以使用其高吞吐量的Ku频段有效载荷为家庭和移动平台提供互联网接入。该卫星仍在工作。
2D轨道图
3D轨道图
轨道高度分析图
轨道倾角分析图
轨道综合分析图
查看轨道综合分析图